DW6832 Weather Reports


time (UTC)temp
C
wind
direction
speed
KPH
gust
KPH
rain 1hr
cm
rain 24hr
cm
rain mn
cm
humidity
%
barometer
mb
20260504130752 15 278 3.2 14.5 0.00 0.00 0.00 51 994.7
20260504130746 15 265 3.2 12.9 0.00 0.00 0.00 52 995.0
20260504130246 15 266 3.2 14.5 0.00 0.00 0.00 52 994.8
20260504120240 15 266 6.4 17.7 0.00 0.00 0.00 48 994.1
20260504110231 13 285 3.2 14.5 0.00 0.00 0.00 49 993.3
20260504100228 13 264 1.6 8.0 0.00 0.00 0.00 51 994.0
20260504081728 11 265 0.0 1.6 0.00 0.00 0.00 54 995.7
20260504081232 11 265 0.0 3.2 0.00 0.00 0.00 53 996.2
20260504081228 11 265 0.0 1.6 0.00 0.00 0.00 54 995.8
20260504080728 11 265 0.0 3.2 0.00 0.00 0.00 54 996.0
20260504080333 12 265 0.0 3.2 0.00 0.00 0.00 52 996.2
20260504070338 12 265 0.0 6.4 0.00 0.00 0.00 51 997.2
20260504070228 12 265 0.0 3.2 0.00 0.00 0.00 50 997.0
20260504060222 11 265 0.0 0.0 0.00 0.00 0.00 55 998.3
20260504050717 12 265 0.0 0.0 0.00 0.00 0.00 52 999.3
20260504050217 12 265 0.0 0.0 0.00 0.00 0.00 52 999.3
20260504045717 12 265 0.0 0.0 0.00 0.00 0.00 51 999.4
20260504045217 12 265 0.0 0.0 0.00 0.00 0.00 50 999.5
20260504044717 12 265 0.0 0.0 0.00 0.00 0.00 50 999.6
20260504044216 12 265 0.0 0.0 0.00 0.00 0.00 50 999.8
20260504043717 12 265 0.0 0.0 0.00 0.00 0.00 50 999.8
20260504043217 12 265 0.0 0.0 0.00 0.00 0.00 49 999.8
20260504042717 12 265 0.0 0.0 0.00 0.00 0.00 50 1000.0
20260504042216 12 265 0.0 0.0 0.00 0.00 0.00 49 1000.0
20260504041715 12 265 0.0 0.0 0.00 0.00 0.00 48 1000.1
20260504041215 13 265 0.0 0.0 0.00 0.00 0.00 47 1000.2
20260504040717 13 265 0.0 0.0 0.00 0.00 0.00 47 1000.3
20260504040213 13 265 0.0 0.0 0.00 0.00 0.00 46 1000.5
20260504035713 13 265 0.0 0.0 0.00 0.00 0.00 46 1000.7
20260504035213 13 265 0.0 0.0 0.00 0.00 0.00 45 1000.7
20260504034713 13 265 0.0 0.0 0.00 0.00 0.00 44 1000.8
20260504034211 13 265 0.0 0.0 0.00 0.00 0.00 44 1001.0
20260504033711 14 265 0.0 0.0 0.00 0.00 0.00 43 1001.0
20260504033211 14 265 0.0 0.0 0.00 0.00 0.00 43 1001.1
20260504032713 14 265 0.0 0.0 0.00 0.00 0.00 42 1001.2
20260504032709 14 265 0.0 0.0 0.00 0.00 0.00 43 1001.1
20260504031707 15 265 0.0 0.0 0.00 0.00 0.00 41 1001.2
20260504031206 15 265 0.0 0.0 0.00 0.00 0.00 41 1001.3
20260504030707 15 265 0.0 0.0 0.00 0.00 0.00 40 1001.3
20260504030207 15 265 0.0 0.0 0.00 0.00 0.00 39 1001.3
20260504025707 16 265 0.0 0.0 0.00 0.00 0.00 38 1001.4
20260504025206 16 265 0.0 0.0 0.00 0.00 0.00 37 1001.4
20260504024706 16 265 0.0 0.0 0.00 0.00 0.00 36 1001.3
20260504024206 16 265 0.0 0.0 0.00 0.00 0.00 36 1001.4
20260504023711 17 265 0.0 1.6 0.00 0.00 0.00 34 1001.5
20260504023706 17 265 0.0 0.0 0.00 0.00 0.00 35 1001.4
20260504023205 17 265 0.0 0.0 0.00 0.00 0.00 34 1001.5
20260504022705 17 265 0.0 1.6 0.00 0.00 0.00 34 1001.5
20260504021705 17 265 0.0 1.6 0.00 0.00 0.00 34 1001.5
20260504021204 17 265 0.0 1.6 0.00 0.00 0.00 33 1001.6
20260504020705 17 265 0.0 4.8 0.00 0.00 0.00 33 1001.5
20260504020207 18 265 0.0 4.8 0.00 0.00 0.00 32 1001.6
20260504020203 17 265 0.0 4.8 0.00 0.00 0.00 32 1001.6
20260504015203 18 265 0.0 4.8 0.00 0.00 0.00 32 1001.6
20260504014701 18 265 0.0 3.2 0.00 0.00 0.00 32 1001.6
20260504014201 18 265 0.0 3.2 0.00 0.00 0.00 32 1001.7
20260504013700 18 265 0.0 3.2 0.00 0.00 0.00 31 1001.6
20260504013201 18 265 1.6 4.8 0.00 0.00 0.00 31 1001.7
20260504012701 18 265 1.6 4.8 0.00 0.00 0.00 31 1001.8
20260504012200 19 265 1.6 8.0 0.00 0.00 0.00 31 1001.8
20260504011701 19 265 1.6 8.0 0.00 0.00 0.00 30 1001.8
20260504011202 19 265 1.6 6.4 0.00 0.00 0.00 30 1001.8
20260504010659 19 265 1.6 6.4 0.00 0.00 0.00 30 1001.8
20260504010159 19 265 1.6 4.8 0.00 0.00 0.00 30 1001.8
20260504005701 20 265 1.6 4.8 0.00 0.00 0.00 29 1001.9
20260504005656 20 265 1.6 4.8 0.00 0.00 0.00 29 1001.8
20260504004655 20 265 1.6 6.4 0.00 0.00 0.00 28 1001.9
20260504004155 20 265 1.6 6.4 0.00 0.00 0.00 28 1001.9
20260504003654 20 269 1.6 6.4 0.00 0.00 0.00 29 1002.0
20260504003154 20 269 1.6 9.7 0.00 0.00 0.00 29 1001.9
20260504002653 20 269 1.6 9.7 0.00 0.00 0.00 28 1001.9
20260504002153 20 269 4.8 16.1 0.00 0.00 0.00 28 1002.0
20260504001652 20 269 6.4 16.1 0.00 0.00 0.00 27 1002.1
20260504001152 20 266 4.8 17.7 0.00 0.00 0.00 27 1002.1
20260504000653 21 276 4.8 17.7 0.00 0.00 0.00 27 1002.0
20260504000152 21 266 3.2 9.7 0.00 0.00 0.00 27 1002.0
20260503235652 21 269 1.6 9.7 0.00 0.00 0.00 27 1002.1
20260503235152 21 303 1.6 9.7 0.00 0.00 0.00 27 1002.2
20260503234652 21 293 1.6 6.4 0.00 0.00 0.00 28 1002.1
20260503234153 21 293 3.2 11.3 0.00 0.00 0.00 28 1002.1
20260503233652 21 264 4.8 11.3 0.00 0.00 0.00 27 1002.1
20260503233152 21 265 3.2 17.7 0.00 0.00 0.00 27 1002.0
20260503232653 21 246 3.2 17.7 0.00 0.00 0.00 27 1002.2
20260503232152 21 274 4.8 14.5 0.00 0.00 0.00 27 1002.2
20260503231657 21 266 1.6 12.9 0.00 0.00 0.00 27 1002.4
20260503231652 21 245 3.2 14.5 0.00 0.00 0.00 27 1002.4
20260503230653 21 262 3.2 11.3 0.00 0.00 0.00 27 1002.4
20260503230153 21 266 1.6 11.3 0.00 0.00 0.00 27 1002.5
20260503225653 21 268 3.2 12.9 0.00 0.00 0.00 27 1002.5
20260503225153 21 264 4.8 16.1 0.00 0.00 0.00 27 1002.6
20260503224652 21 276 4.8 16.1 0.00 0.00 0.00 28 1002.6
20260503224152 21 263 3.2 14.5 0.00 0.00 0.00 27 1002.6
20260503223652 21 260 1.6 9.7 0.00 0.00 0.00 27 1002.7
20260503223153 21 270 1.6 8.0 0.00 0.00 0.00 27 1002.6
20260503222657 21 267 3.2 12.9 0.00 0.00 0.00 27 1002.7
20260503222652 21 267 3.2 12.9 0.00 0.00 0.00 28 1002.7
20260503221653 21 261 3.2 9.7 0.00 0.00 0.00 28 1002.7
20260503221157 21 266 3.2 16.1 0.00 0.00 0.00 27 1002.7
20260503221153 21 260 3.2 16.1 0.00 0.00 0.00 27 1002.7
20260503220153 21 266 3.2 12.9 0.00 0.00 0.00 26 1002.7
20260503215652 21 273 4.8 16.1 0.00 0.00 0.00 27 1002.8
20260503215152 21 269 4.8 16.1 0.00 0.00 0.00 27 1002.8
20260503214654 21 266 1.6 16.1 0.00 0.00 0.00 26 1002.9
20260503214158 20 259 0.0 0.0 0.00 0.00 0.00 27 1003.0
20260503214152 21 237 0.0 1.6 0.00 0.00 0.00 28 1003.0
20260503213653 20 269 0.0 0.0 0.00 0.00 0.00 27 1003.0
20260503212650 20 269 0.0 0.0 0.00 0.00 0.00 28 1002.9
20260503212148 21 256 0.0 1.6 0.00 0.00 0.00 29 1002.9
20260503211646 21 259 0.0 1.6 0.00 0.00 0.00 30 1003.0
20260503211147 20 266 0.0 1.6 0.00 0.00 0.00 30 1003.0
20260503210651 20 264 1.6 11.3 0.00 0.00 0.00 30 1003.1
20260503210647 20 266 0.0 8.0 0.00 0.00 0.00 30 1003.0
20260503205651 20 274 4.8 20.9 0.00 0.00 0.00 29 1003.2
20260503205647 20 278 4.8 20.9 0.00 0.00 0.00 28 1003.2
20260503204643 21 261 3.2 12.9 0.00 0.00 0.00 30 1003.2
20260503204143 21 311 3.2 12.9 0.00 0.00 0.00 31 1003.2
20260503203643 20 269 1.6 11.3 0.00 0.00 0.00 32 1003.2
20260503203143 20 269 3.2 16.1 0.00 0.00 0.00 31 1003.3
20260503202642 20 287 3.2 16.1 0.00 0.00 0.00 33 1003.3
20260503202140 20 274 3.2 14.5 0.00 0.00 0.00 31 1003.5
20260503201640 20 288 4.8 17.7 0.00 0.00 0.00 32 1003.5
20260503201140 20 274 6.4 17.7 0.00 0.00 0.00 32 1003.6
20260503200638 20 276 3.2 14.5 0.00 0.00 0.00 32 1003.6
20260503200143 20 267 1.6 9.7 0.00 0.00 0.00 33 1003.7
20260503200139 21 274 3.2 14.5 0.00 0.00 0.00 33 1003.7
20260503195137 20 0 3.2 8.0 0.00 0.00 0.00 34 1003.8
20260503194637 20 349 3.2 14.5 0.00 0.00 0.00 31 1003.9
20260503194134 20 318 3.2 14.5 0.00 0.00 0.00 31 1004.0
20260503193636 20 260 3.2 9.7 0.00 0.00 0.00 31 1004.0
20260503193132 20 311 4.8 16.1 0.00 0.00 0.00 32 1004.0
20260503192637 20 299 3.2 19.3 0.00 0.00 0.00 32 1003.9
20260503192632 20 301 3.2 16.1 0.00 0.00 0.00 32 1004.1
20260503191633 20 311 4.8 19.3 0.00 0.00 0.00 31 1004.0
20260503191132 20 264 4.8 19.3 0.00 0.00 0.00 30 1004.1
20260503190630 20 311 3.2 12.9 0.00 0.00 0.00 29 1004.1
20260503190135 20 318 1.6 9.7 0.00 0.00 0.00 33 1004.1
20260503190130 20 281 1.6 12.9 0.00 0.00 0.00 30 1004.0
20260503185628 20 266 1.6 9.7 0.00 0.00 0.00 30 1004.0
20260503184628 20 272 3.2 12.9 0.00 0.00 0.00 31 1004.1
20260503184131 20 345 4.8 22.5 0.00 0.00 0.00 32 1004.1
20260503184127 20 345 3.2 24.1 0.00 0.00 0.00 33 1004.2
20260503183130 20 326 3.2 14.5 0.00 0.00 0.00 38 1004.4
20260503183126 20 285 3.2 19.3 0.00 0.00 0.00 35 1004.2
20260503182623 20 333 3.2 14.5 0.00 0.00 0.00 35 1004.3
20260503181622 20 273 3.2 22.5 0.00 0.00 0.00 38 1004.2
20260503181122 20 269 3.2 22.5 0.00 0.00 0.00 37 1004.3
20260503180622 20 311 3.2 11.3 0.00 0.00 0.00 39 1004.3
20260503180126 20 285 4.8 16.1 0.00 0.05 0.00 37 1004.4
20260503180122 20 287 3.2 16.1 0.00 0.00 0.00 37 1004.5
20260503175727 20 307 4.8 14.5 0.00 0.05 0.00 38 1004.4
20260503174626 20 342 1.6 12.9 0.00 0.05 0.00 38 1004.5
20260503174622 20 316 3.2 12.9 0.00 0.05 0.00 37 1004.5
20260503173726 20 269 3.2 17.7 0.00 0.05 0.00 37 1004.5
20260503173627 20 309 3.2 17.7 0.00 0.05 0.00 36 1004.6
20260503173622 20 273 3.2 12.9 0.00 0.05 0.00 38 1004.5
20260503172120 20 309 1.6 9.7 0.00 0.05 0.00 39 1004.5
20260503171620 19 338 3.2 9.7 0.00 0.05 0.00 40 1004.5
20260503171121 19 273 3.2 9.7 0.00 0.05 0.00 40 1004.5
20260503170625 19 281 3.2 9.7 0.00 0.05 0.00 42 1004.5
20260503170620 19 266 3.2 9.7 0.00 0.05 0.00 41 1004.6
20260503160118 18 6 1.6 11.3 0.00 0.05 0.00 44 1004.4
20260503150721 17 359 1.6 11.3 0.00 0.05 0.00 48 1004.2
20260503140114 15 342 1.6 8.0 0.00 0.05 0.00 53 1003.8
20260503140110 15 358 3.2 8.0 0.00 0.05 0.00 52 1003.9